[[{"header":{"parameterUnit":"m.s-1","parameterCategory":1,"la1":30.2991,"la2":30.254,"lo1":-89.0895,"lo2":-89.0444,"dy":0.0017,"dx":0.0017,"nx":28,"ny":28,"refTime":"2025-09-06T09:00:00:Z","depth":0,"parameterNumber":2,"parameterNumberName":"U-component_of_WINDS"},"data":[0,0,0,0,0,0,0,0,0,0,0,0,0,0,0,0,0,0,0,0,0,0,0,0,0,0,0,0,0,0,0,0,0,0,0,0,0,0,0,0,0,0,0,0,0,0,0,0,0,0,0,0,0,0,0,0,0,0,-0.3493,-0.3494,0,-0.3507,-0.3507,-0.3507,-0.3486,-0.3486,-0.3485,-0.3484,-0.35,-0.3501,-0.3502,0,0,0,0,0,0,0,0,0,0,0,0,0,-0.3452,-0.3453,-0.3493,-0.3494,-0.3494,-0.3507,-0.3507,-0.3507,-0.3487,-0.3486,-0.3485,-0.3484,-0.3499,-0.3501,-0.3502,0,0,0,0,0,0,0,0,0,0,0,0,0,-0.3468,-0.3453,-0.3493,-0.3485,-0.3484,-0.3507,-0.3507,-0.3507,-0.3487,-0.3486,-0.3485,-0.3484,-0.3499,-0.3501,-0.3502,-0.3534,0,0,-0.3507,-0.3508,0,0,0,0,0,0,0,0,-0.3467,-0.347,-0.3486,-0.3486,-0.3485,-0.3494,-0.3498,-0.3516,-0.3487,-0.3486,-0.3484,-0.3483,-0.3499,-0.35,-0.3505,-0.3535,-0.3535,-0.3507,-0.3508,-0.3509,-0.3509,0,0,0,0,0,0,0,-0.3466,-0.3469,-0.3499,-0.3486,-0.3486,-0.3481,-0.3482,-0.3501,-0.3498,-0.3486,-0.3484,-0.3486,-0.3498,-0.3504,-0.3506,-0.3536,-0.3507,-0.3509,-0.351,-0.351,-0.3593,-0.3594,0,0,0,0,0,0,-0.3466,-0.3468,-0.3498,-0.3499,-0.3473,-0.3483,-0.3484,-0.3492,-0.3498,-0.3498,-0.3487,-0.3485,-0.3502,-0.3504,-0.3506,-0.3545,-0.3509,-0.3511,-0.3511,-0.3592,-0.3593,-0.3595,0,0,0,0,0,0,-0.3465,-0.3469,-0.3498,-0.3483,-0.3487,-0.3485,-0.3494,-0.3493,-0.3498,-0.3499,-0.3499,-0.3493,-0.3501,-0.3504,-0.3527,-0.3545,-0.3511,-0.3513,-0.359,-0.3592,-0.3594,-0.3622,0,0,0,0,0,0,-0.3464,-0.3468,-0.348,-0.3484,-0.3488,-0.3519,-0.3495,-0.3494,-0.3501,-0.3499,-0.3505,-0.3505,-0.35,-0.3525,-0.3529,-0.3547,-0.3514,-0.3589,-0.3591,-0.3593,-0.3619,-0.3624,-0.3629,0,0,0,0,0,-0.3462,-0.3488,-0.3481,-0.3485,-0.3502,-0.352,-0.3522,-0.3516,-0.3503,-0.3515,-0.3515,-0.3504,-0.3542,-0.3528,-0.3532,-0.355,-0.3588,-0.3591,-0.3593,-0.3617,-0.3624,-0.3629,0,0,0,0,0,0,-0.3487,-0.3488,-0.348,-0.3507,-0.3513,-0.3516,-0.3531,-0.3522,-0.3533,-0.353,-0.3523,-0.3524,-0.355,-0.3552,-0.3536,-0.3582,-0.3563,-0.3567,-0.358,-0.3586,-0.359,-0.359,-0.3515,0,0,0,0,0,-0.3495,-0.3509,-0.3509,-0.3533,-0.3536,-0.3533,-0.3541,-0.3535,-0.3542,-0.3544,-0.3546,-0.3554,-0.3567,-0.3576,-0.3589,-0.3619,-0.3621,-0.3634,-0.3639,-0.3642,-0.3646,-0.3664,-0.367,-0.3604,-0.3604,-0.3604,0,0,-0.3513,-0.3515,-0.3524,-0.3538,-0.3542,-0.3557,-0.3536,-0.3552,-0.3564,-0.3547,-0.357,-0.3572,-0.3579,-0.3607,-0.3619,-0.3609,-0.3665,-0.3646,-0.3649,-0.3651,-0.3667,-0.3674,-0.3679,-0.3606,-0.3605,-0.3605,0,0,-0.3553,-0.3555,-0.3576,-0.3581,-0.3587,-0.3585,-0.359,-0.3594,-0.3594,-0.3617,-0.3605,-0.3618,-0.3642,-0.3648,-0.3654,-0.3697,-0.3688,-0.3701,-0.3726,-0.3743,-0.3748,-0.3753,-0.377,-0.3775,-0.3704,-0.3704,-0.3704,0,-0.3574,-0.3596,-0.3588,-0.3606,-0.3613,-0.3597,-0.3619,-0.3624,-0.3634,-0.364,-0.3629,-0.3658,-0.3662,-0.3691,-0.3702,-0.3707,-0.3713,-0.3701,-0.3748,-0.3753,-0.3757,-0.3773,-0.3779,-0.3706,-0.3706,-0.3706,-0.3705,0,-0.3623,-0.3638,-0.3654,-0.3664,-0.3673,-0.3692,-0.3688,-0.3697,-0.3691,-0.3691,-0.3714,-0.3718,-0.3732,-0.3738,-0.3732,-0.3767,-0.3761,-0.3749,-0.373,-0.3765,-0.378,-0.3786,-0.3708,-0.3708,-0.3707,-0.3707,0,0,-0.368,-0.3685,-0.3691,-0.3696,-0.3702,-0.3714,-0.3733,-0.3746,-0.3755,-0.3762,-0.3779,-0.3799,-0.3788,-0.3795,-0.379,-0.3805,-0.384,-0.3791,-0.3791,-0.3801,-0.388,-0.389,-0.3897,-0.3833,-0.3835,-0.3835,-0.388,0,-0.3721,-0.3754,-0.3747,-0.3779,-0.3794,-0.378,-0.3797,-0.3803,-0.3802,-0.3815,-0.3815,-0.383,-0.3814,-0.3818,-0.3832,-0.3833,-0.3856,-0.3829,-0.385,-0.3851,-0.385,-0.3905,-0.3915,-0.3957,-0.3886,-0.3887,-0.3887,0,-0.3774,-0.3783,-0.3817,-0.3821,-0.3827,-0.3842,-0.3854,-0.3866,-0.3872,-0.3871,-0.3879,-0.3871,-0.3891,-0.3871,-0.3899,-0.3881,-0.3889,-0.389,-0.3892,-0.3895,-0.3872,-0.3911,-0.397,-0.3977,-0.3896,-0.3895,-0.3895,0,-0.3814,-0.3835,-0.3858,-0.3862,-0.3867,-0.3878,-0.3881,-0.3887,-0.3895,-0.3905,-0.3911,-0.3923,-0.393,-0.394,-0.3936,-0.3921,-0.3966,-0.3944,-0.3966,-0.3967,-0.3977,-0.3977,-0.4041,-0.398,-0.398,-0.398,-0.398,0,-0.3861,-0.3883,-0.3876,-0.3891,-0.3915,-0.3907,-0.3931,-0.3932,-0.3937,-0.3952,-0.394,-0.3955,-0.3948,-0.3962,-0.3959,-0.3983,-0.3986,-0.3987,-0.3986,-0.3989,-0.3989,-0.3995,-0.3993,-0.3981,-0.3981,-0.3981,-0.3981,0,-0.3911,-0.3907,-0.3931,-0.3934,-0.3935,-0.3953,-0.3956,-0.397,-0.3968,-0.3987,-0.3991,-0.399,-0.4006,-0.4002,-0.402,-0.4018,-0.4049,-0.4044,-0.4047,-0.4046,-0.4069,-0.4068,-0.414,-0.415,-0.4081,-0.4082,-0.4083,0,-0.3943,-0.3959,-0.3963,-0.3972,-0.3976,-0.399,-0.3999,-0.3991,-0.4001,-0.401,-0.4023,-0.4038,-0.405,-0.4076,-0.4077,-0.4091,-0.4087,-0.4111,-0.4089,-0.4091,-0.4089,-0.4089,-0.4091,-0.4116,-0.4117,-0.4118,-0.4118,0,-0.4,-0.3997,-0.4009,-0.4021,-0.4031,-0.404,-0.4048,-0.4056,-0.4049,-0.406,-0.4077,-0.4086,-0.4104,-0.4119,-0.4132,-0.4136,-0.4127,-0.4125,-0.4131,-0.4135,-0.4137,-0.4137,-0.4061,-0.4124,-0.4123,-0.4123,-0.4122,-0.4122,-0.4042,-0.4056,-0.4062,-0.4076,-0.4081,-0.4089,-0.4102,-0.4102,-0.4115,-0.4129,-0.4124,-0.4143,-0.415,-0.4166,-0.4171,-0.4186,-0.4177,-0.4186,-0.4188,-0.4191,-0.4194,-0.4133,-0.4188,-0.4188,-0.4188,-0.4188,-0.4188,0,-0.41,-0.4103,-0.4116,-0.4127,-0.4138,-0.4127,-0.4136,-0.4146,-0.4163,-0.4169,-0.4181,-0.42,-0.4215,-0.4217,-0.4231,-0.4243,-0.4239,-0.4247,-0.4247,-0.4249,-0.4201,-0.4195,-0.425,-0.425,-0.425,-0.425,-0.425,-0.425,-0.4132,-0.4156,-0.4153,-0.418,-0.4182,-0.42,-0.4206,-0.4214,-0.4219,-0.4241,-0.4253,-0.4253,-0.4259,-0.4273,-0.4287,-0.4287,-0.4293,-0.4303,-0.4302,-0.4258,-0.4252,-0.4246,-0.424,-0.4305,-0.4305,-0.4349,-0.4349,-0.435]},{"header":{"parameterUnit":"m.s-1","parameterCategory":1,"la1":30.2991,"la2":30.254,"lo1":-89.0895,"lo2":-89.0444,"dy":0.0017,"dx":0.0017,"nx":28,"ny":28,"refTime":"2025-09-06T09:00:00:Z","depth":0,"parameterNumber":3,"parameterNumberName":"V-component_of_WINDS"},"data":[0,0,0,0,0,0,0,0,0,0,0,0,0,0,0,0,0,0,0,0,0,0,0,0,0,0,0,0,0,0,0,0,0,0,0,0,0,0,0,0,0,0,0,0,0,0,0,0,0,0,0,0,0,0,0,0,0,0,2.4902,2.4902,0,2.4878,2.4878,2.4878,2.4811,2.4809,2.4808,2.4806,2.4781,2.4782,2.4783,0,0,0,0,0,0,0,0,0,0,0,0,0,2.489,2.4891,2.4902,2.4902,2.4902,2.4878,2.4878,2.4877,2.4811,2.4809,2.4807,2.4806,2.4781,2.4782,2.4783,0,0,0,0,0,0,0,0,0,0,0,0,0,2.4884,2.4891,2.4903,2.4866,2.4862,2.4878,2.4878,2.4877,2.4811,2.4809,2.4807,2.4805,2.4781,2.4782,2.4783,2.4833,0,0,2.4786,2.4787,0,0,0,0,0,0,0,0,2.4884,2.4884,2.4872,2.4868,2.4864,2.4845,2.4864,2.4862,2.4812,2.4831,2.4806,2.4804,2.4804,2.4803,2.4804,2.4831,2.483,2.4786,2.4787,2.4787,2.4788,0,0,0,0,0,0,0,2.4885,2.4885,2.4893,2.4871,2.4867,2.485,2.4847,2.4864,2.483,2.4829,2.4824,2.4822,2.4802,2.4803,2.4802,2.483,2.4786,2.4787,2.4788,2.4788,2.4895,2.4897,0,0,0,0,0,0,2.4891,2.4886,2.4894,2.4892,2.4869,2.4852,2.4848,2.4854,2.483,2.4824,2.4824,2.4819,2.4802,2.4801,2.4801,2.4856,2.4787,2.4788,2.4789,2.4892,2.4895,2.4897,0,0,0,0,0,0,2.4891,2.4892,2.4895,2.4888,2.4887,2.4855,2.4861,2.4854,2.4855,2.4826,2.4819,2.4831,2.48,2.48,2.4825,2.4854,2.4789,2.479,2.489,2.4893,2.4896,2.4966,0,0,0,0,0,0,2.4891,2.4892,2.4911,2.4889,2.4887,2.4919,2.4863,2.4855,2.4857,2.485,2.4831,2.4825,2.4799,2.4824,2.4826,2.4854,2.479,2.4887,2.4891,2.4895,2.4961,2.4971,2.498,0,0,0,0,0,2.489,2.4932,2.4913,2.4914,2.491,2.4921,2.492,2.4888,2.4859,2.4877,2.4859,2.4826,2.4851,2.4827,2.4829,2.4858,2.4885,2.489,2.4895,2.4957,2.4969,2.498,0,0,0,0,0,0,2.496,2.4929,2.4906,2.4942,2.4935,2.4909,2.4931,2.4903,2.4904,2.4897,2.4858,2.4854,2.4884,2.4874,2.4847,2.4903,2.4862,2.4868,2.4909,2.492,2.493,2.4931,2.4791,0,0,0,0,0,2.4979,2.499,2.4963,2.4997,2.4994,2.4964,2.4967,2.4944,2.4934,2.493,2.4913,2.4905,2.4911,2.4915,2.4919,2.496,2.4953,2.4981,2.499,2.4998,2.5003,2.5021,2.5032,2.4914,2.4914,2.4914,0,0,2.5019,2.5004,2.5013,2.5011,2.5002,2.5013,2.4961,2.4977,2.4985,2.4933,2.4954,2.4942,2.493,2.4962,2.4976,2.4954,2.5035,2.5005,2.5011,2.5012,2.5028,2.5039,2.5049,2.4917,2.4917,2.4916,0,0,2.5098,2.5088,2.5114,2.5107,2.5094,2.5073,2.508,2.5058,2.5048,2.5069,2.503,2.5039,2.505,2.5042,2.504,2.5115,2.5084,2.5118,2.5167,2.5186,2.5195,2.5203,2.5228,2.5237,2.5123,2.5123,2.5123,0,2.5149,2.5166,2.5132,2.5149,2.5148,2.5101,2.5127,2.5121,2.5111,2.5111,2.5087,2.5099,2.5088,2.5117,2.5135,2.5136,2.514,2.5119,2.5196,2.5204,2.5211,2.5234,2.5244,2.5127,2.5127,2.5126,2.5126,0,2.5228,2.524,2.5263,2.5253,2.5255,2.5277,2.5245,2.5251,2.5228,2.5209,2.5231,2.5216,2.5215,2.522,2.5198,2.5245,2.5232,2.5204,2.5161,2.5227,2.5248,2.5256,2.5133,2.5131,2.513,2.5129,0,0,2.5349,2.5319,2.5328,2.5322,2.5304,2.5313,2.5332,2.533,2.5335,2.533,2.5343,2.5354,2.5326,2.5324,2.53,2.5317,2.5374,2.5285,2.5284,2.53,2.5423,2.5443,2.5454,2.5354,2.5356,2.5357,2.5423,0,2.5421,2.5451,2.5421,2.5457,2.5467,2.5423,2.5439,2.5429,2.5413,2.5418,2.54,2.5406,2.5371,2.5369,2.5383,2.5364,2.5398,2.5359,2.5365,2.5366,2.5367,2.5465,2.5487,2.555,2.5431,2.5433,2.5434,0,2.5509,2.5507,2.5544,2.5522,2.5525,2.554,2.5535,2.5542,2.5529,2.5516,2.5513,2.5484,2.55,2.546,2.5481,2.5455,2.5456,2.5447,2.5449,2.5446,2.5402,2.5463,2.557,2.5578,2.5447,2.5446,2.5445,0,2.5591,2.5597,2.5619,2.5616,2.5591,2.5603,2.5593,2.5579,2.558,2.5576,2.5575,2.5574,2.5573,2.5572,2.5543,2.5517,2.5566,2.5525,2.5554,2.5555,2.5565,2.5564,2.5671,2.557,2.557,2.5569,2.5569,0,2.5673,2.5697,2.5655,2.5668,2.5693,2.5658,2.5684,2.567,2.5657,2.5667,2.5629,2.5639,2.56,2.5606,2.5583,2.5602,2.5603,2.5591,2.5585,2.5593,2.5595,2.5592,2.5586,2.5572,2.5571,2.5571,2.557,0,2.5768,2.5741,2.5761,2.5737,2.5731,2.575,2.5728,2.5739,2.572,2.5732,2.5733,2.5703,2.5707,2.5678,2.5678,2.5662,2.5691,2.5678,2.5695,2.569,2.572,2.5717,2.5827,2.5839,2.5732,2.5734,2.5734,0,2.5821,2.5838,2.5815,2.5818,2.581,2.5817,2.5817,2.5783,2.5784,2.5771,2.5784,2.5785,2.5783,2.5792,2.5769,2.5768,2.5753,2.5792,2.5753,2.576,2.5751,2.5749,2.575,2.5799,2.5801,2.5802,2.5803,0,2.5918,2.5903,2.5905,2.5902,2.5903,2.5899,2.5892,2.5897,2.586,2.5864,2.5867,2.5866,2.5865,2.5865,2.586,2.5849,2.5819,2.5815,2.5822,2.583,2.5838,2.5831,2.5715,2.5813,2.5812,2.5811,2.581,2.581,2.5991,2.6004,2.5989,2.5991,2.5983,2.5977,2.5986,2.5967,2.597,2.5965,2.5945,2.5952,2.5938,2.5927,2.5919,2.5923,2.5905,2.5914,2.5916,2.5919,2.5923,2.5839,2.5922,2.5922,2.5922,2.5922,2.5921,0,2.6084,2.6072,2.6075,2.6066,2.6068,2.6041,2.6032,2.6035,2.6041,2.6031,2.603,2.6033,2.6034,2.6011,2.6008,2.6016,2.6002,2.6016,2.6014,2.6012,2.5941,2.5935,2.6027,2.6027,2.6027,2.6027,2.6027,2.6027,2.6132,2.6151,2.6135,2.6148,2.6136,2.6142,2.6139,2.6133,2.6124,2.6129,2.6129,2.6115,2.6099,2.6095,2.6093,2.6087,2.6086,2.6105,2.6093,2.6027,2.6017,2.6007,2.6001,2.6106,2.6106,2.6163,2.6163,2.6164]}]]